[[{"header":{"parameterUnit":"m.s-1","parameterCategory":1,"la1":30.2992,"la2":30.254,"lo1":-89.0895,"lo2":-89.0443,"dy":0.0025,"dx":0.0025,"nx":19,"ny":19,"refTime":"2026-03-14T21:00:00:Z","depth":0,"parameterNumber":2,"parameterNumberName":"U-component_of_WINDS"},"data":[0,0,0,-3.4853,-3.4856,-3.4971,-3.4971,-3.5132,-3.5133,0,0,0,0,0,0,0,0,0,0,0,-3.483,-3.4832,-3.4853,-3.4856,-3.4971,-3.4971,-3.5131,-3.5133,0,0,0,0,0,0,0,0,0,0,0,-3.4829,-3.4831,-3.4833,-3.4857,-3.497,-3.4971,-3.5131,-3.5039,0,0,0,0,0,0,0,0,0,0,-3.4925,-3.4915,-3.4831,-3.4833,-3.4857,-3.497,-3.4971,-3.5034,-3.5045,-3.5087,0,-3.5129,0,-3.5134,-3.5145,-3.5146,0,0,0,-3.4848,-3.4906,-3.4928,-3.4833,-3.4859,-3.497,-3.4917,-3.504,-3.5052,-3.5101,-3.5131,-3.5136,-3.5137,-3.5146,-3.5147,-3.5422,-3.5424,0,0,-3.4841,-3.4856,-3.492,-3.4936,-3.4922,-3.4913,-3.492,-3.5047,-3.508,-3.5131,-3.514,-3.5139,-3.5148,-3.5149,-3.5421,-3.5423,0,0,0,-3.4829,-3.4852,-3.487,-3.493,-3.495,-3.4916,-3.4925,-3.5074,-3.5079,-3.5141,-3.5141,-3.5149,-3.5151,-3.5419,-3.5421,-3.552,0,0,0,-3.4825,-3.4845,-3.4868,-3.4878,-3.4948,-3.5014,-3.495,-3.507,-3.5084,-3.514,-3.5149,-3.5152,-3.5417,-3.542,-3.5513,-3.5564,0,0,0,-3.4819,-3.4844,-3.4865,-3.4878,-3.4928,-3.5011,-3.5023,-3.5073,-3.5084,-3.5146,-3.5153,-3.5416,-3.542,-3.5508,-3.5554,-3.5641,0,0,0,-3.4817,-3.495,-3.4866,-3.5015,-3.4928,-3.5072,-3.5022,-3.5129,-3.5193,-3.5149,-3.5417,-3.5421,-3.5506,-3.5548,-3.5635,-3.5718,-3.5753,0,0,-3.4993,-3.4972,-3.5058,-3.4986,-3.515,-3.5054,-3.5231,-3.5275,-3.5266,-3.537,-3.5377,-3.5516,-3.5554,-3.564,-3.5948,-3.5977,0,0,0,-3.5119,-3.5181,-3.5221,-3.5284,-3.5322,-3.5359,-3.5374,-3.539,-3.5478,-3.5324,-3.557,-3.5592,-3.5642,-3.5681,-3.5705,-3.5747,-3.544,-3.5439,-3.5439,-3.539,-3.5373,-3.5514,-3.5511,-3.5572,-3.5587,-3.5635,-3.5659,-3.5623,-3.5681,-3.5712,-3.5901,-3.5947,-3.5966,-3.6009,-3.5754,-3.5754,-3.5755,-3.5755,-3.5647,-3.5732,-3.5681,-3.58,-3.5781,-3.5879,-3.5898,-3.5869,-3.5958,-3.5877,-3.592,-3.5833,-3.5998,-3.6035,-3.5762,-3.5761,-3.576,-3.5759,-3.5759,-3.5823,-3.5861,-3.5879,-3.5968,-3.6039,-3.603,-3.6117,-3.6095,-3.6075,-3.6118,-3.6148,-3.6146,-3.6142,-3.6134,-3.6135,-3.6135,-3.6136,-3.6136,-3.6137,-3.5998,-3.6016,-3.6093,-3.6145,-3.6182,-3.6229,-3.6245,-3.628,-3.6314,-3.6291,-3.6291,-3.6249,-3.6017,-3.5959,-3.6147,-3.6145,-3.6144,-3.6143,-3.6142,-3.6266,-3.6202,-3.6322,-3.636,-3.6418,-3.6489,-3.646,-3.6535,-3.6561,-3.6604,-3.6552,-3.6385,-3.6361,-3.6341,-3.6293,-3.6556,-3.6556,-3.6556,-3.6556,-3.6415,-3.6401,-3.6518,-3.658,-3.6638,-3.6624,-3.6758,-3.6771,-3.6774,-3.6789,-3.6747,-3.6682,-3.6663,-3.665,-3.6624,-3.6579,-3.6908,-3.6909,-3.6909,-3.6579,-3.6569,-3.6689,-3.6693,-3.6736,-3.6774,-3.6899,-3.697,-3.696,-3.6923,-3.68,-3.6785,-3.6679,-3.6645,-3.6606,-3.6566,-3.6483,0,0]},{"header":{"parameterUnit":"m.s-1","parameterCategory":1,"la1":30.2992,"la2":30.254,"lo1":-89.0895,"lo2":-89.0443,"dy":0.0025,"dx":0.0025,"nx":19,"ny":19,"refTime":"2026-03-14T21:00:00:Z","depth":0,"parameterNumber":3,"parameterNumberName":"V-component_of_WINDS"},"data":[0,0,0,3.2276,3.2277,3.232,3.232,3.2368,3.2369,0,0,0,0,0,0,0,0,0,0,0,3.2262,3.2262,3.2276,3.2277,3.232,3.232,3.2368,3.2369,0,0,0,0,0,0,0,0,0,0,0,3.2262,3.2262,3.2263,3.2278,3.232,3.232,3.2368,3.2338,0,0,0,0,0,0,0,0,0,0,3.2297,3.2283,3.2262,3.2263,3.2278,3.232,3.232,3.2336,3.234,3.2347,0,3.2355,0,3.2363,3.2372,3.2372,0,0,0,3.2278,3.228,3.2293,3.2263,3.2278,3.232,3.2301,3.2338,3.2342,3.2351,3.2355,3.2357,3.2363,3.2372,3.2372,3.2415,3.2415,0,0,3.2276,3.2268,3.2291,3.2296,3.2291,3.2299,3.2302,3.2341,3.2344,3.2356,3.2358,3.2364,3.2372,3.2373,3.2415,3.2415,0,0,0,3.2269,3.2266,3.2279,3.2294,3.2302,3.2301,3.2304,3.2342,3.2347,3.2359,3.2365,3.2372,3.2373,3.2415,3.2415,3.2416,0,0,0,3.2267,3.2262,3.2278,3.2273,3.2301,3.2323,3.2304,3.2344,3.2349,3.2364,3.2372,3.2373,3.2415,3.2415,3.2415,3.2416,0,0,0,3.226,3.2261,3.2267,3.2273,3.2291,3.2322,3.2329,3.2345,3.2352,3.2372,3.2374,3.2415,3.2415,3.2415,3.2416,3.2425,0,0,0,3.2249,3.2266,3.2267,3.2288,3.2291,3.2323,3.2329,3.2353,3.237,3.2373,3.2415,3.2415,3.2415,3.2416,3.2425,3.2431,3.2433,0,0,3.2266,3.2268,3.2281,3.2283,3.2313,3.2317,3.2347,3.2369,3.2377,3.2402,3.2403,3.2415,3.2416,3.2425,3.245,3.2451,0,0,0,3.2284,3.2293,3.2302,3.2319,3.2338,3.2353,3.2372,3.238,3.2401,3.2389,3.2422,3.2422,3.2428,3.2431,3.2433,3.2437,3.2417,3.2417,3.2417,3.2295,3.2306,3.2328,3.2344,3.236,3.238,3.2393,3.2407,3.2413,3.242,3.2427,3.2441,3.2445,3.2446,3.2451,3.2432,3.2432,3.2432,3.2432,3.232,3.2334,3.2343,3.2367,3.2378,3.2398,3.2417,3.242,3.2439,3.2437,3.2442,3.2437,3.2447,3.2452,3.2432,3.2432,3.2432,3.2432,3.2432,3.2328,3.2337,3.2348,3.2373,3.2391,3.2406,3.2424,3.2434,3.2442,3.2448,3.2456,3.2456,3.2456,3.2451,3.2451,3.2451,3.2451,3.2451,3.2451,3.2332,3.2344,3.2359,3.2381,3.2393,3.2409,3.2429,3.244,3.2455,3.246,3.246,3.2464,3.2447,3.2442,3.2452,3.2452,3.2452,3.2452,3.2452,3.2351,3.2349,3.2372,3.2384,3.2409,3.2426,3.2438,3.2461,3.2471,3.248,3.2483,3.2469,3.2471,3.247,3.2466,3.2482,3.2482,3.2482,3.2482,3.2357,3.236,3.2386,3.2404,3.2423,3.2437,3.2461,3.2477,3.2492,3.2499,3.2498,3.2494,3.2492,3.2495,3.2493,3.2489,3.2511,3.2511,3.2511,3.2369,3.2374,3.2394,3.2411,3.2431,3.2448,3.2471,3.2491,3.2508,3.2512,3.2504,3.2503,3.2496,3.2493,3.2496,3.2494,3.2486,0,0]}]]